Home   Weather   St. Louis   Past weeks
Flag for USA

Past Weather in St. Louis, Missouri, USA — Yesterday and Last 2 Weeks

Now
64 °F

Overcast.


Feels Like: 64 °F
Forecast: 73 / 45 °F
Wind: 5 mph from South

Location: Lambert-St. Louis International Airport

Current Time: Apr 6, 2020 at 2:16:32 pm

Latest Report: Apr 6, 2020 at 12:51 pm


Visibility: 10 mi

Pressure: 30.04 "Hg

Humidity: 65%

Dew Point: 52 °F

Location of St. LouisLocation

Past Weather in St. Louis — Graph

°F

St. Louis Temperature Yesterday

Maximum temperature yesterday: 54 °F (at 3:51 pm)
Minimum temperature yesterday: 43 °F (at 6:51 am)
Average temperature yesterday: 48 °F

High & Low Weather Summary for the Past Weeks

 TemperatureHumidityPressure
High79 °F (Mar 27, 4:51 pm)93% (Mar 23, 4:51 am)30.32 "Hg (Mar 23, 4:51 am)
Low35 °F (Mar 22, 12:02 pm)19% (Mar 30, 6:51 pm)29.52 "Hg (Mar 28, 6:51 pm)
Average53 °F69%29.99 "Hg
* Reported Mar 22 12:02 pm — Apr 6 12:51 pm, St. Louis. Weather by CustomWeather, © 2020

Note: Actual official high and low records may vary slightly from our data, if they occured in-between our weather recording intervals... More about our weather records

St. Louis Weather History for the Previous 24 Hours

Scroll right to see more
 ConditionsComfort  
Time TempWeatherWind HumidityBarometerVisibility
12:51 pm
Mon, Apr 6
64 °FOvercast.5 mph65%30.04 "Hg10 mi
11:51 am59 °FOvercast.9 mph72%30.07 "Hg10 mi
10:51 am58 °FMore clouds than sun.10 mph72%30.09 "Hg10 mi
9:51 am55 °FMostly cloudy.7 mph77%30.09 "Hg9 mi
9:22 am55 °FMostly cloudy.6 mph74%30.09 "Hg7 mi
8:51 am54 °FOvercast.7 mph77%30.09 "Hg7 mi
7:51 am52 °FOvercast.6 mph83%30.10 "Hg6 mi
6:51 am51 °FOvercast.3 mph83%30.10 "Hg7 mi
5:51 am50 °FOvercast.6 mph86%30.09 "Hg7 mi
4:51 am49 °FFog.No wind90%30.09 "Hg6 mi
3:51 am48 °FPassing clouds.No wind86%30.09 "Hg8 mi
2:51 am47 °FClear.3 mph86%30.09 "Hg9 mi
1:51 am50 °FPassing clouds.No wind80%30.10 "Hg10 mi
1:01 am50 °FPassing clouds.3 mph80%30.10 "Hg10 mi
11:51 pm
Sun, Apr 5
51 °FOvercast.6 mph77%30.12 "Hg10 mi
11:07 pm52 °FOvercast.No wind75%30.11 "Hg10 mi
9:51 pm52 °FOvercast.5 mph75%30.13 "Hg9 mi
8:51 pm52 °FPassing clouds.6 mph72%30.11 "Hg9 mi
7:51 pm53 °FPassing clouds.6 mph66%30.11 "Hg9 mi
6:51 pm54 °FPartly sunny.5 mph59%30.11 "Hg10 mi
6:42 pm54 °FMostly cloudy.6 mph62%30.10 "Hg10 mi
5:51 pm54 °FBroken clouds.5 mph59%30.11 "Hg10 mi
4:51 pm54 °FMostly cloudy.3 mph59%30.12 "Hg10 mi
3:51 pm54 °FOvercast.3 mph57%30.13 "Hg10 mi
2:51 pm53 °FOvercast.3 mph61%30.14 "Hg10 mi
Weather by CustomWeather, © 2020

See weather overview

Advertising